Погода в Львове

Погода в Львове : погода сейчас, прогноз погоды и архив. Всё, что Вы хотите узнать о погоде в Львове!

Поиск расширенной информации на нашем сайте:

Полезная информация:

Другие новости

Новости СМИ2

Главная страница сайта

Новости сайта

03.07.2017

Напоминаем, что на нашем специализированном сайте Метеоцентр.Азия вы можете получить высокодетализированные автоматические прогнозы погоды по пунктам России, СНГ и мира в авиационном формате (включающие направление и скорость ветра, видимость, явления погоды, количество и форму облачности, нижнюю и верхнюю границу облачности).

Рекомендуем:

Погода в Львове - сегодня

Время (UTC), дата Ветер
(°,м/с) 
Видим.   Явления Облачность Т
(°С)
Тd
(°С)
f(%) Тe
(°С)
Pmin
(гПа)
dP
(гПа)
Po
(мм)
O2
(г/м3)
Тmin Tmax R s Состояние
почвы
12 15.07.19 360 (С) 10 км    8/8 1200 м 
[Cu med, cong]
+19.1 +10.3 57 +22  1011.4  -0.3  731  273           
15 15.07.19 350 (С) 10 км    8/8 1300 м кучево-дожд. 
[Cb calv]
+19 +9.4 54 +21  1011.7  0.3  731  274           
18 15.07.19 210 (ЮЗ) 10 км    6/0 средняя 
[Ac trans]
+16.7 +12.5 76 +23  1012.2  0.2  731  275    +21.8       
21 15.07.19 тихо ()   10 км    8/0 средняя 
[Ac trans]
+12.6 +11.5 93 +16  1013.4  0.6  731  279           
00 16.07.19 тихо ()   10 км    9/0 средняя 
[Ac trans]
+11.4 +10.2 92 +13  1013.1  -0.4  731  281           
03 16.07.19 тихо ()   10 км    8/0 средняя 
[Ac trans]
+9.6 +8.6 93 +10  1012.9  -0.5  731  283           
06 16.07.19 270 (З) 10 км    3/0 средняя 
[Ac trans]
+15.4 +11.4 77 +20  1012.5  0.4  731  277  +9.4         
09 16.07.19 270 (З) 10 км    3/0 средняя 
[Ac trans]
+20.9 +5.9 38 +21  1011.1  -0.7  731  272           
12 16.07.19 280 (З) 10 км    6/0 средняя 
[Ac trans]
+21.9 +8.2 41 +22  1010.1  -0.8  730  271           
15 16.07.19 290 (З) 10 км    6/0 средняя, верхняя 
[Ac lent|Ci fib]
+22.7 +10.1 45 +25  1009  -0.9  729  269           
18 16.07.19 320 (СЗ) 10 км    8/0 средняя 
[Ac trans]
+19 +11.5 62 +24  1009.5  0.1  729  273    +23       
21 16.07.19 320 (СЗ) 10 км  {ливн. осадки}  10/0 средняя 
[Ac As]
+16.1 +10.9 71 +20  1011  730  276           
00 17.07.19 тихо ()   10 км  {ливн. осадки}  6/0 средняя 
[Ac trans]
+12.6 +10.5 87 +15  1011.9  0.4  730  279      0.5     
03 17.07.19 тихо ()   10 км    8/0 средняя 
[Ac trans]
+9.5 +8.7 95 +10  1011.6  -0.7  730  283           
06 17.07.19 280 (З) 10 км    6/0 средняя 
[Ac trans]
+14.8 +11.5 81 +19  1010.5  -0.4  730  277  +9.4    0.5     
09 17.07.19 280 (З) 10 км    8/8 1200 м кучево-дожд. 
[Cb calv]
+16.9 +10.6 66 +20  1009.9  -0.3  729  275           
12 17.07.19 310 (СЗ) 10 км  слаб. ливневой дождь  8/8 1000 м кучево-дожд. 
[Cb calv]
+16.5 +12.8 79 +23  1009.7  -0.2  729  275           
15 17.07.19 310 (СЗ) 10 км  {ливн. осадки}  8/8 1080 м кучево-дожд. 
[Cb calv]
+18.2 +10.9 62 +22  1009.8  0.3  729  274           
18 17.07.19 тихо ()   10 км  в посл. час ливневой дождь  8/4 1000 м кучево-дожд., средняя 
[Cb calv|Ac trans]
+15.1 +12.2 83 +20  1011  0.8  730  276    +20.2  0.0     
21 17.07.19 тихо ()   10 км    6/0 средняя 
[Ac trans]
+13.6 +10.6 82 +16  1012.2  0.9  731  278           
00 18.07.19 тихо ()   10 км    3/0 средняя 
[Ac trans]
+10.2 +9.4 95 +11  1013.1  0.4  731  282           
03 18.07.19 тихо ()   10 км    3/0 верхняя 
[Ci fib]
+7.5 +6.9 96 +8  1013.4  -0.1  731  285           
06 18.07.19 270 (З) 10 км    3/0 верхняя 
[Ci fib]
+15.1 +11.8 81 +20  1012.9  0.6  731  277  +7.5         
09 18.07.19 300 (СЗ) 10 км    6/6 1200 м 
[Cu hum]
+19.7 +11 57 +24  1012.9  0.6  732  273           
12 18.07.19 270 (З) 10 км    6/6 1410 м 
[Sc]
+20.5 +10.3 52 +23  1013  0.1  732  272           
Время (UTC), дата Ветер
(°,м/с) 
Видим.   Явления Облачность Т
(°С)
Тd
(°С)
f(%) Тe
(°С)
Pmin
(гПа)
dP
(гПа)
Po
(мм)
O2
(г/м3)
Тmin Tmax R s Состояние
почвы

Для получения пояснительной информации подведите курсор к названию столбца.

ПОГОДА в Львове - архив

Всё, что Вы хотите узнать о погоде в Львове - удобно и подробно!

Выберите нужную дату (начиная с 1 января 2018* года) и нажмите кнопку "Найти".
Будут отображены архивные сводки погоды по пункту Львов, начиная с указанной даты.


Отображать данные в формате CSV (для использования в таблицах Excel)


Внимание! Наш архив погоды предназначен исключительно для личного некоммерческого использования в познавательных целях. Если Вам необходимы официальные справки о состоянии погоды (для производственных, юридических, коммерческих и т.п. целей), обращайтесь в органы Росгидромета.

*Примечание: данная дата относится к архиву по метеостанциям СССР (Россия, СНГ, Балтия).
Архив по метеостанциям Зарубежной Европы и Азии (кроме Китая) хранится 10 дней, по другим регионам земного шара (Китай, Африка, Америка, Австралия, Океания) - 1 день.

Львов - район местоположения метеостанции


Название, широта, долгота, высота метеостанции:
Львов 49.8°ш. 23.9°д. 323 м над ур. моря [Украина]

Дополнительная информация

В oтличие oт бoльшинства пoгoдных сайтoв мы публикуем пoдрoбную метеoинфoрмацию в детальнoм прoфессиoнальнoм фoрмате.

Характеристики температуры и влажнoсти вoздуха измеряются на высoте 2 м в тени вдали oт зданий и деревьев.
Скoрoсть ветра измеряется на высoте 10 м (на урoвне рoста челoвека скoрoсть ветра ниже в 1.5-2 раза). Если метеoстанция нахoдится в гoрoде или в лесу, тo скoрoсть ветра занижена на 2-4 м/с пo сравнению с oткрытым местoм. Скoрoсть ветра над акватoриями крупных рек и oзёр, а также на вершинах хoлмoв на 2-5 м/с выше, чем в oбычных услoвиях.
Атмoсфернoе давление в разных тoчках местнoсти мoжет значительнo oтличаться oт давления на метеoстанции, в зависимoсти oт услoвий рельефа (при пoдъёме на 10 м давление пoнижается примернo на 1 мм рт.ст.).